When you browse on this site, cookies collect data to enhance your experience and personalize the content and advertising you see.
Visit our Privacy Policy to learn more. By continuing to use the site, you agree to this use of cookies and data.
  • In Hungary
  • List of Countries
  • For 7 days
  • Water Temperature
  • Weather Map
  • News
  • Weather Widgets
  • user-avatar
    Login

    Hourly Weather Dhamtari

    Today, 21 August, Wednesday

    Time Temperature Precipitation Wind Pressure Humidity
    00:00 +27°C° 0 mm 3 mps 725 mmHg 86%
    01:00 +27°C° 0 mm 3 mps 725 mmHg 86%
    02:00 +26°C° 0 mm 3 mps 725 mmHg 86%
    03:00 +26°C° 0 mm 3 mps 725 mmHg 87%
    04:00 +26°C° 0 mm 2 mps 725 mmHg 88%
    05:00 +26°C° 0 mm 2 mps 725 mmHg 89%
    06:00 +27°C° 0.6 mm 2 mps 725 mmHg 87%
    07:00 +28°C° 0.6 mm 2 mps 725 mmHg 85%
    08:00 +28°C° 0.6 mm 3 mps 725 mmHg 83%
    09:00 +30°C° 1.5 mm 3 mps 725 mmHg 78%
    10:00 +31°C° 1.5 mm 3 mps 725 mmHg 73%
    11:00 +33°C° 1.5 mm 3 mps 725 mmHg 69%
    12:00 +33°C° 1.9 mm 3 mps 724 mmHg 68%
    13:00 +34°C° 1.9 mm 3 mps 724 mmHg 67%
    14:00 +34°C° 1.9 mm 3 mps 723 mmHg 66%
    15:00 +33°C° 1.4 mm 4 mps 723 mmHg 71%
    16:00 +32°C° 1.4 mm 4 mps 723 mmHg 75%
    17:00 +30°C° 1.4 mm 4 mps 723 mmHg 79%
    18:00 +29°C° 0.4 mm 3 mps 723 mmHg 82%
    19:00 +28°C° 0.4 mm 3 mps 724 mmHg 85%
    20:00 +28°C° 0.4 mm 2 mps 724 mmHg 88%
    21:00 +27°C° 0.1 mm 2 mps 725 mmHg 88%
    22:00 +27°C° 0.1 mm 2 mps 725 mmHg 89%
    23:00 +27°C° 0.1 mm 1 mps 725 mmHg 89%

    Tomorrow, 22 August, Thursday

    Time Temperature Precipitation Wind Pressure Humidity
    00:00 +27°C° 0.5 mm 1 mps 724 mmHg 90%
    01:00 +27°C° 0.5 mm 1 mps 724 mmHg 90%
    02:00 +26°C° 0.5 mm 1 mps 724 mmHg 90%
    03:00 +26°C° 0.1 mm 1 mps 724 mmHg 90%
    04:00 +26°C° 0.1 mm 1 mps 724 mmHg 90%
    05:00 +26°C° 0.1 mm 1 mps 724 mmHg 90%
    06:00 +27°C° 0 mm 2 mps 724 mmHg 88%
    07:00 +27°C° 0 mm 2 mps 725 mmHg 86%
    08:00 +28°C° 0 mm 2 mps 725 mmHg 85%
    09:00 +29°C° 0.4 mm 2 mps 725 mmHg 79%
    10:00 +31°C° 0.4 mm 2 mps 725 mmHg 73%
    11:00 +32°C° 0.4 mm 2 mps 724 mmHg 68%
    12:00 +34°C° 0.3 mm 3 mps 724 mmHg 65%
    13:00 +34°C° 0.3 mm 3 mps 723 mmHg 62%
    14:00 +35°C° 0.3 mm 3 mps 723 mmHg 59%
    15:00 +34°C° 0.2 mm 3 mps 723 mmHg 63%
    16:00 +33°C° 0.2 mm 4 mps 722 mmHg 68%
    17:00 +32°C° 0.2 mm 4 mps 722 mmHg 73%
    18:00 +30°C° 0 mm 4 mps 723 mmHg 76%
    19:00 +29°C° 0 mm 3 mps 723 mmHg 80%
    20:00 +28°C° 0 mm 3 mps 724 mmHg 83%
    21:00 +28°C° 0 mm 3 mps 724 mmHg 83%
    22:00 +28°C° 0 mm 3 mps 724 mmHg 84%
    23:00 +27°C° 0 mm 3 mps 724 mmHg 84%

    Day after tomorrow, 23 August, Friday

    Time Temperature Precipitation Wind Pressure Humidity
    00:00 +27°C° 0.1 mm 3 mps 724 mmHg 86%
    01:00 +27°C° 0.1 mm 3 mps 724 mmHg 87%
    02:00 +27°C° 0.1 mm 3 mps 723 mmHg 88%
    03:00 +27°C° 0 mm 3 mps 723 mmHg 88%
    04:00 +27°C° 0 mm 3 mps 723 mmHg 87%
    05:00 +27°C° 0 mm 4 mps 723 mmHg 87%
    06:00 +27°C° 0 mm 4 mps 724 mmHg 85%
    07:00 +28°C° 0 mm 4 mps 724 mmHg 82%
    08:00 +29°C° 0 mm 4 mps 725 mmHg 80%
    09:00 +30°C° 0.2 mm 4 mps 725 mmHg 77%
    10:00 +32°C° 0.2 mm 4 mps 725 mmHg 75%
    11:00 +31°C° 0.2 mm 3 mps 724 mmHg 72%
    12:00 +33°C° 1.3 mm 4 mps 724 mmHg 72%
    13:00 +33°C° 1.3 mm 4 mps 723 mmHg 71%
    14:00 +33°C° 1.3 mm 4 mps 723 mmHg 71%
    15:00 +32°C° 1.7 mm 4 mps 723 mmHg 76%
    16:00 +30°C° 1.7 mm 4 mps 723 mmHg 81%
    17:00 +29°C° 1.7 mm 4 mps 723 mmHg 85%
    18:00 +28°C° 0.7 mm 4 mps 723 mmHg 87%
    19:00 +28°C° 0.7 mm 4 mps 724 mmHg 89%
    20:00 +27°C° 0.7 mm 4 mps 725 mmHg 91%
    21:00 +27°C° 1.4 mm 4 mps 725 mmHg 92%
    22:00 +27°C° 1.4 mm 4 mps 725 mmHg 92%
    23:00 +26°C° 1.4 mm 4 mps 725 mmHg 93%

    24 August, Saturday

    Time Temperature Precipitation Wind Pressure Humidity
    00:00 +26°C° 1.3 mm 4 mps 725 mmHg 94%
    01:00 +26°C° 1.3 mm 4 mps 724 mmHg 94%
    02:00 +26°C° 1.3 mm 4 mps 724 mmHg 94%
    03:00 +26°C° 0.1 mm 4 mps 724 mmHg 94%
    04:00 +26°C° 0.1 mm 4 mps 724 mmHg 94%
    05:00 +26°C° 0.1 mm 4 mps 724 mmHg 93%
    06:00 +26°C° 0.1 mm 4 mps 724 mmHg 92%
    07:00 +27°C° 0.1 mm 4 mps 725 mmHg 91%
    08:00 +27°C° 0.1 mm 4 mps 726 mmHg 89%
    09:00 +28°C° 0.8 mm 4 mps 725 mmHg 85%
    10:00 +30°C° 0.8 mm 5 mps 725 mmHg 81%
    11:00 +32°C° 0.8 mm 5 mps 725 mmHg 76%
    12:00 +32°C° 2.9 mm 5 mps 724 mmHg 77%
    13:00 +32°C° 2.9 mm 5 mps 724 mmHg 78%
    14:00 +32°C° 2.9 mm 6 mps 723 mmHg 79%
    15:00 +30°C° 1.5 mm 6 mps 723 mmHg 82%
    16:00 +29°C° 1.5 mm 6 mps 723 mmHg 85%
    17:00 +28°C° 1.5 mm 6 mps 723 mmHg 89%
    18:00 +27°C° 0.3 mm 5 mps 723 mmHg 90%
    19:00 +27°C° 0.3 mm 4 mps 724 mmHg 92%
    20:00 +26°C° 0.3 mm 4 mps 725 mmHg 94%
    21:00 +26°C° 0.5 mm 4 mps 725 mmHg 94%
    22:00 +26°C° 0.5 mm 4 mps 725 mmHg 95%
    23:00 +26°C° 0.5 mm 3 mps 725 mmHg 95%

    25 August, Sunday

    Time Temperature Precipitation Wind Pressure Humidity
    00:00 +26°C° 1 mm 3 mps 725 mmHg 95%
    01:00 +26°C° 1 mm 3 mps 724 mmHg 96%
    02:00 +25°C° 1 mm 3 mps 724 mmHg 96%
    03:00 +25°C° 0.5 mm 3 mps 724 mmHg 96%
    04:00 +25°C° 0.5 mm 3 mps 724 mmHg 96%
    05:00 +25°C° 0.5 mm 3 mps 724 mmHg 96%
    06:00 +26°C° 0.1 mm 3 mps 724 mmHg 94%
    07:00 +26°C° 0.1 mm 3 mps 725 mmHg 93%
    08:00 +26°C° 0.1 mm 4 mps 725 mmHg 92%
    09:00 +27°C° 0 mm 4 mps 725 mmHg 90%
    10:00 +27°C° 0 mm 4 mps 725 mmHg 88%
    11:00 +28°C° 0 mm 4 mps 725 mmHg 86%
    12:00 +28°C° 0.3 mm 4 mps 725 mmHg 83%
    13:00 +29°C° 0.3 mm 5 mps 724 mmHg 81%
    14:00 +29°C° 0.3 mm 5 mps 724 mmHg 79%
    15:00 +29°C° 0.3 mm 5 mps 724 mmHg 81%
    16:00 +28°C° 0.3 mm 5 mps 724 mmHg 83%
    17:00 +27°C° 0.3 mm 5 mps 724 mmHg 85%
    18:00 +27°C° 0 mm 5 mps 724 mmHg 87%
    19:00 +26°C° 0 mm 4 mps 725 mmHg 88%
    20:00 +26°C° 0 mm 3 mps 725 mmHg 90%
    21:00 +26°C° 0 mm 3 mps 725 mmHg 91%
    22:00 +25°C° 0 mm 3 mps 725 mmHg 91%
    23:00 +25°C° 0 mm 3 mps 725 mmHg 92%

    26 August, Monday

    Time Temperature Precipitation Wind Pressure Humidity
    00:00 +25°C° 0 mm 3 mps 725 mmHg 91%
    01:00 +25°C° 0 mm 4 mps 725 mmHg 90%
    02:00 +25°C° 0 mm 4 mps 724 mmHg 89%
    03:00 +25°C° 0 mm 4 mps 724 mmHg 89%
    04:00 +25°C° 0 mm 4 mps 725 mmHg 88%
    05:00 +25°C° 0 mm 4 mps 725 mmHg 88%
    06:00 +25°C° 0 mm 4 mps 725 mmHg 87%
    07:00 +26°C° 0 mm 5 mps 726 mmHg 85%
    08:00 +26°C° 0 mm 5 mps 726 mmHg 84%
    09:00 +27°C° 0 mm 5 mps 726 mmHg 80%
    10:00 +28°C° 0 mm 6 mps 726 mmHg 77%
    11:00 +29°C° 0 mm 6 mps 726 mmHg 74%
    12:00 +30°C° 0.1 mm 6 mps 725 mmHg 73%
    13:00 +30°C° 0.1 mm 6 mps 725 mmHg 72%
    14:00 +30°C° 0.1 mm 5 mps 724 mmHg 72%
    15:00 +29°C° 0.1 mm 5 mps 724 mmHg 73%
    16:00 +29°C° 0.1 mm 5 mps 724 mmHg 75%
    17:00 +29°C° 0.1 mm 5 mps 724 mmHg 76%
    18:00 +28°C° 0 mm 5 mps 724 mmHg 80%
    19:00 +27°C° 0 mm 4 mps 725 mmHg 83%
    20:00 +26°C° 0 mm 4 mps 725 mmHg 86%
    21:00 +25°C° 0 mm 4 mps 726 mmHg 86%
    22:00 +25°C° 0 mm 4 mps 726 mmHg 86%
    23:00 +23°C° 0 mm 4 mps 726 mmHg 87%
    Show more